Location: Boissi�res
(45.2500°N, 2.3667°E)
Time: 05:12:10
(UTC+00:00)

USA 306 - Pass Details

Date: 03 March 2021
Orbit: 564 x 577 km, 54.0° (Epoch: 13 April)

Event Time Altitude Azimuth Distance (km) Brightness Sun altitude
Rises 18:18:39 0° 276° (W) 2,773 8.7 -7.5°
Reaches altitude 10° 18:21:10 10° 289° (WNW) 1,874 6.9 -7.9°
Maximum altitude 18:24:51 28° 349° (N) 1,094 4.5 -8.6°
Drops below altitude 10° 18:28:32 10° 49° (NE) 1,869 5.1 -9.2°
Enters shadow 18:29:14 - 53° (NE) 2,111 5.3 -9.4°
